This is the latest recevied weather packets stored in our database for station/object W7TJC. If no packets are shown the sender has not sent any weather packets the latest 1 day(s).
| Time | Temp. | Humidity | Pressure | Rain* | Wind** | Luminosity | Snow |
|---|---|---|---|---|---|---|---|
| 1778038880 | 15° C | 82% | 1016.5 hPa | 0 mm | - | 0 W/m² | - |
| 1778038577 | 15° C | 82% | 1016.4 hPa | 0 mm | - | 0 W/m² | - |
| 1778038274 | 15° C | 81% | 1016.5 hPa | 0 mm | - | 0 W/m² | - |
| 1778037971 | 15° C | 81% | 1016.4 hPa | 0 mm | - | 0 W/m² | - |
| 1778037668 | 15.56° C | 81% | 1016.5 hPa | 0 mm | - | 0 W/m² | - |
| 1778037062 | 15.56° C | 81% | 1016.2 hPa | 0 mm | - | 0 W/m² | - |
| 1778036761 | 15.56° C | 81% | 1016.1 hPa | 0 mm | - | 0 W/m² | - |
| 1778036457 | 15.56° C | 80% | 1016.3 hPa | 0 mm | - | 3 W/m² | - |
| 1778036154 | 15.56° C | 80% | 1016.3 hPa | 0 mm | - | 3 W/m² | - |
| 1778035850 | 15.56° C | 80% | 1016.4 hPa | 0 mm | - | 3 W/m² | - |
| 1778035244 | 16.11° C | 80% | 1016.5 hPa | 0 mm | - | 4 W/m² | - |
| 1778034940 | 16.11° C | 80% | 1016.2 hPa | 0 mm | - | 4 W/m² | - |
| 1778034638 | 16.11° C | 79% | 1016.3 hPa | 0 mm | - | 5 W/m² | - |
| 1778034335 | 16.11° C | 79% | 1016.3 hPa | 0 mm | - | 6 W/m² | - |
| 1778034032 | 16.11° C | 79% | 1016.4 hPa | 0 mm | - | 6 W/m² | - |
| 1778033730 | 16.11° C | 79% | 1016.4 hPa | 0 mm | - | 7 W/m² | - |
| 1778033427 | 16.67° C | 78% | 1016.2 hPa | 0 mm | - | 7 W/m² | - |
| 1778032822 | 16.67° C | 77% | 1016.3 hPa | 0 mm | - | 10 W/m² | - |
| 1778032519 | 16.67° C | 77% | 1016.3 hPa | 0 mm | - | 9 W/m² | - |
| 1778032216 | 16.67° C | 76% | 1016.3 hPa | 0 mm | - | 10 W/m² | - |
| 1778031609 | 16.67° C | 77% | 1016.2 hPa | 0 mm | - | 10 W/m² | - |
| 1778030397 | 16.67° C | 76% | 1016.2 hPa | 0 mm | - | 12 W/m² | - |
| 1778029790 | 16.67° C | 76% | 1016.3 hPa | 0 mm | - | 12 W/m² | - |
| 1778029490 | 17.22° C | 76% | 1016.2 hPa | 0 mm | - | 18 W/m² | - |
| 1778029185 | 17.22° C | 76% | 1016.1 hPa | 0 mm | - | 13 W/m² | - |
* Rain latest hour (hover to see other rain measurements)
** Current wind speed in m/s (hover to see current wind gust speed)